Location: Lane
(33.5226°N, 79.8788°W)
Time: 11:35:40
(UTC+00:00)

Transit 4A - All Passes

Search period start: 05 October 2022 00:00
Search period end: 15 October 2022 00:00
Orbit: 870 x 974 km, 66.8° (Epoch: 04 October)

Date Brightness Start Highest point End Pass type
(mag) Time Alt. Az. Time Alt. Az. Time Alt. Az.
05 Oct - 01:57:53 10° S 02:03:56 53° ESE 02:09:51 10° NE night (unlit)
05 Oct - 03:45:46 10° WSW 03:50:32 23° NW 03:55:14 10° N night (unlit)
05 Oct - 11:05:28 10° N 11:10:21 27° NE 11:15:11 10° ESE daylight
05 Oct - 12:51:22 10° NW 12:56:43 39° WSW 13:02:03 10° S daylight
06 Oct - 02:06:51 10° SSW 02:13:07 82° ESE 02:19:13 10° NNE night (unlit)
06 Oct - 03:56:35 10° W 04:00:06 15° NW 04:03:35 10° NNW night (unlit)
06 Oct - 11:14:17 10° N 11:19:45 40° ENE 11:25:11 10° SE daylight
06 Oct - 13:01:12 10° NW 13:05:46 24° WSW 13:10:21 10° SSW daylight
07 Oct - 00:33:01 10° SE 00:36:36 16° ESE 00:40:08 10° ENE night (unlit)
07 Oct - 02:16:10 10° SW 02:22:21 66° WNW 02:28:24 10° NNE night (unlit)
07 Oct - 04:09:20 10° NW 04:09:46 10° NW 04:10:12 10° NW night (unlit)
07 Oct - 11:23:18 10° NNW 11:29:04 63° ENE 11:34:49 10° SE daylight
07 Oct - 13:11:38 10° WNW 13:14:46 15° WSW 13:17:53 10° SW daylight
08 Oct - 00:40:38 10° SSE 00:45:37 26° ESE 00:50:31 10° NE visible
08 Oct - 02:25:47 10° SW 02:31:40 43° WNW 02:37:26 10° NNE visible
08 Oct - 09:48:21 10° NNE 09:51:17 14° NE 09:54:10 10° ENE visible
08 Oct - 11:32:28 10° NNW 11:38:19 84° WSW 11:44:07 10° SSE daylight
09 Oct - 00:48:57 10° S 00:54:41 40° ESE 01:00:19 10° NE visible
09 Oct - 02:35:45 10° WSW 02:41:03 29° NW 02:46:17 10° N visible
09 Oct - 09:56:33 10° N 10:00:51 21° NE 10:05:06 10° E visible
09 Oct - 11:41:50 10° NW 11:47:28 53° WSW 11:53:06 10° S daylight
10 Oct - 00:57:41 10° SSW 01:03:49 62° ESE 01:09:50 10° NNE visible
10 Oct - 02:46:10 10° W 02:50:34 20° NW 02:54:54 10° N visible
10 Oct - 10:05:12 10° N 10:10:19 31° NE 10:15:24 10° ESE visible
10 Oct - 11:51:27 10° NW 11:56:34 33° WSW 12:01:42 10° S daylight
10 Oct - 23:25:49 10° ESE 23:27:28 11° ESE 23:29:06 10° E visible
11 Oct - 01:06:47 10° SSW 01:13:01 86° WNW 01:19:07 10° NNE visible
11 Oct - 02:57:17 10° WNW 03:00:09 13° NW 03:03:00 10° NNW visible
11 Oct - 10:14:06 10° NNW 10:19:42 47° ENE 10:25:16 10° SE visible
11 Oct - 12:01:24 10° WNW 12:05:36 21° WSW 12:09:47 10° SSW daylight
11 Oct - 23:32:17 10° SSE 23:36:26 19° ESE 23:40:32 10° ENE visible
12 Oct - 01:16:11 10° SW 01:22:17 57° WNW 01:28:15 10° NNE visible
12 Oct - 08:40:40 10° NE 08:41:39 10° NE 08:42:37 10° NE visible
12 Oct - 10:23:10 10° NNW 10:28:59 73° ENE 10:34:47 10° SSE visible
12 Oct - 12:12:18 10° W 12:14:34 12° WSW 12:16:49 10° SW daylight
12 Oct - 23:40:11 10° SSE 23:45:28 30° ESE 23:50:39 10° NE visible
13 Oct - 01:25:56 10° SW 01:31:38 38° WNW 01:37:13 10° N visible
13 Oct - 08:47:49 10° NNE 08:51:18 16° NE 08:54:46 10° E visible
13 Oct - 10:32:24 10° NNW 10:38:12 72° WSW 10:43:58 10° SSE visible
13 Oct - 23:48:40 10° S 23:54:34 46° ESE 00:00:20 10° NE visible
14 Oct - 01:36:02 10° WSW 01:41:03 25° NW 01:46:00 10° N visible
14 Oct - 08:56:13 10° N 09:00:51 24° NE 09:05:26 10° ESE visible
14 Oct - 10:41:50 10° NW 10:47:20 45° WSW 10:52:49 10° S visible
